星链-3516 (STARLINK-3516 )

导读

STARLINK-3516是美国SpaceX公司星链(Starlink)项目的一颗低轨通信卫星,于北京时间2022年2月21日发射入轨。它运行在近地轨道,作为星链星座的组成部分,旨在为全球偏远地区提供高速、低延迟的宽带互联网服务。该卫星采用平板设计,搭载霍尔推进器,具备自主避撞能力,寿命结束后会主动离轨并在大气层中烧毁,减少空间垃圾。

Basic Information
目录编号:
51739
目录名称:
STARLINK-3516
国际标识:
2022-016AB
轨道中心:
EARTH
卫星名称:
星链-3516
卫星全名:
星链-3516 (STARLINK-3516 )
卫星状态:
在轨 (已飞行1577 天)
发射日期:
2022-02-21 UTC
国别 :
美国 (US)
星等 :
--
Orbit Information
数据来源 国际轨道数据 AOE轨道数据
星历时间 2026-06-17T17:44:38+0800
9小时前
查看轨道信息
2026-06-13T06:00:00+0800
4天前
查看轨道信息
半长轴 6917.915km 6917.902km
偏心率 0.0001203 0.000147
轨道倾角 53.159° 53.163°
近地点辐角 88.373° 133.533°
升交点赤经 231.378° 251.558°
平近点角 271.740° 308.095°
近地点 538.945km 538.748km
远地点 540.611km 540.782km
周期 95.438分钟 95.438分钟
每日圈数 15.088287 15.08833
Detailed Information
固有亮度:
5
最大亮度:
2.5
卫星平台:
Starlink v1.5
覆盖范围:
全球
运营商:
太空探索技术公司
运营商所在国:
美国
制造商(研发单位):
太空探索技术公司
制造商所在国:
美国
使用方式:
暂无
Satellite Introduction
星链(Starlink)计划是由太空探索技术公司(SpaceX)提出的一个巨型低轨卫星互联网星座项目,计划在2019年至2024年间在太空搭建由约1.2万颗卫星组成的“星链”网络,其中1584颗将部署在地球上空550千米处的近地轨道,并从2020年开始工作。该卫星仍在工作。
2D Orbit Map
3D Orbit Map
Orbit Altitude Analysis Chart
Orbit Inclination Analysis Chart
Orbit Comprehensive Analysis Chart
View Comprehensive Chart